Location: Izdebno
(52.6670°N, 16.2170°E)
Time: 18:26:40
(UTC+01:00)

Transit 2A - Pass Details

Date: 03 February 2023
Orbit: 591 x 964 km, 66.7° (Epoch: 21 March)

Event Time Altitude Azimuth Distance (km) Brightness Sun altitude
Rises 20:52:41 0° 291° (WNW) 3,228 10.2 -37.3°
Reaches altitude 10° 20:55:38 10° 308° (NW) 2,374 9.2 -37.7°
Enters shadow 20:58:40 19° 341° (NNW) 1,872 8.3 -38.1°
Maximum altitude 20:59:39 20° 355° (N) 1,851 - -38.2°
Drops below altitude 10° 21:03:57 10° 42° (NE) 2,556 - -38.8°
Sets 21:07:17 0° 58° (ENE) 3,556 - -39.3°
